Location: Newark
(21.1200°N, 73.4000°E)
Time: 05:17:10
(UTC+00:00)

Explorer 7 - Visible Passes

Search period start: 19 January 2020 00:00
Search period end: 29 January 2020 00:00
Orbit: 485 x 679 km, 50.3° (Epoch: 18 January)

Date Brightness Start Highest point End Pass type
(mag) Time Alt. Az. Time Alt. Az. Time Alt. Az.
24 Jan 9.5 00:26:41 10° NNE 00:28:11 12° NE 00:29:42 10° ENE visible
25 Jan 9.0 00:30:10 10° N 00:33:15 20° NE 00:36:29 10° E visible
26 Jan 8.1 00:35:08 14° NNW 00:38:14 37° NE 00:42:15 10° ESE visible
26 Jan 9.1 14:28:17 10° S 14:29:06 13° SSE 14:29:06 13° SSE visible
27 Jan 6.9 00:40:24 20° NW 00:43:09 76° NE 00:47:29 10° SE visible
27 Jan 8.2 14:32:13 10° SSW 14:34:34 28° S 14:34:34 28° S visible
27 Jan 10.0 23:09:22 10° ENE 23:09:22 10° ENE 23:09:29 10° ENE visible
28 Jan 7.1 00:45:43 23° WNW 00:48:02 51° SW 00:52:14 10° SSE visible
28 Jan 7.3 14:36:49 10° SW 14:40:03 54° SW 14:40:03 54° SW visible
28 Jan 9.7 23:14:46 15° E 23:14:46 15° E 23:15:52 10° E visible
